Torna al catalogo

STARLINK-34487

AttivoComunicazioniVLEO
NORAD 64417·PAYLOAD·🇺🇸 United States

Lanciato Jun 17, 2025 da Vandenberg Space Force Base

Loading…

Prossimi Passaggi (prossime 24 ore)

TLE

AggiornatoSource: CelesTrak SupGP

Epoca: Sep 14, 2026, 21:11 UTC

1 64417C 25129F   26257.88312500 -.00012992  00000+0 -45220-3 0  2577
2 64417  69.9997 315.7348 0003328 270.7119 291.1693 15.29568073    15

Traccia STARLINK-34487 in tempo reale con AllMySat

Download on the App Store